Regional Weather Roundup
Issued by NWS

Home | Current Version | Previous Version | Text Only | Print | Product List | Glossary Off
Versions: 1 2 3 4 5 6 7 8 9 10 11 12 13 14 15 16 17 18 19 20 21 22 23 24 25 26 27 28 29 30 31 32 33 34 35 36 37 38 39 40 41 42 43 44 45 46 47 48 49 50

000
ASUS45 KTFX 171919
RWRMT
MONTANA HOURLY WEATHER ROUNDUP
NATIONAL WEATHER SERVICE GREAT FALLS MT
119 PM MDT WED SEP 17 2014

NOTE: "FAIR" INDICATES FEW OR NO CLOUDS BELOW 12000 FEET WITH NO
SIGNIFICANT WEATHER AND/OR OBSTRUCTIONS TO VISIBILITY.

* THESE STATIONS ARE NOT UNDER NWS QUALITY CONTROL. THEY DO NOT
   REPORT WEATHER SUCH AS PRECIPITATION OR FOG.

MTZ001>007-043-172000-
WEST OF THE DIVIDE
CITY           SKY/WX    TMP DP  RH WIND       PRES   REMARKS
KALISPELL      PTCLDY    72  46  40 VRB3      29.85F
MISSOULA       PTCLDY    72  46  40 CALM      29.89F
BUTTE          PTSUNNY   75  43  32 NE3       30.01F
MULLAN PASS    PTSUNNY   66  39  37 VRB6      30.01R
* ESSEX        N/A       70  46  42 NE2G8      N/A
* LINCOLN      N/A       73  44  35 SE3        N/A
* LOOKOUT PASS N/A       69  47  46 S6         N/A
* POLSON       N/A       76  50  40 SW3        N/A
* RONAN APT    SUNNY     73  48  41 N/A        N/A
* SEELEY LAKE  N/A       74  45  36 W2         N/A
* THOMP F APT  PTCLDY    74  37  26 S8G13      N/A
$$

MTZ008-052>055-172000-
SOUTHWEST MONTANA
CITY           SKY/WX    TMP DP  RH WIND       PRES   REMARKS
BOZEMAN        SUNNY     75  46  36 CALM      29.97F
DILLON         PTCLDY    72  45  38 CALM      30.00F
W YELLOWSTONE  PTCLDY    70  45  41 S3        30.12F
* THREE FORKS  SUNNY     72  72 100 N/A        N/A
* BOULDER HILL N/A       68  42  39 S12        N/A
* MONIDA PASS  N/A       72  38  29 SE14G20    N/A
* RAYNOLDS PAS N/A       71  54  55 SE12G18    N/A
* WHITEHALL    N/A       72  48  43 S4         N/A
* WISE RIVER   N/A       67  44  44 W5         N/A
$$

MTZ009>010-012-014-046-048-049-054-172000-
EAST SLOPES AND CENTRAL MONTANA
CITY           SKY/WX    TMP DP  RH WIND       PRES   REMARKS
CUT BANK       PTSUNNY   77  43  30 S6        29.87F
GREAT FALLS    PTCLDY    79  46  31 S6        29.88F
HELENA         PTCLDY    73  48  41 CALM      29.93F
MALMSTROM AFB  PTCLDY    77  50  39 N2        29.88F
* CONRAD       PTCLDY    79  46  31 SE6        N/A
* EAST GLACIER N/A       71  42  35 W10G15     N/A
* MONARCH      N/A       75  38  26 W9G16      N/A
* PENDROY      N/A       80  49  34 SE9        N/A
* ROGERS PASS  N/A       72  43  35 SE8G14     N/A
* SAINT MARY   N/A       76  41  29 SW6G11     N/A
* SWEET GRASS  N/A       77  41  28 SE4G12     N/A
* WHITE SULPH  N/A       77  45  32 S10G16     N/A
$$

MTZ011-013-016-021-035-040-045-047-050-051-172000-
NORTH CENTRAL MONTANA
CITY           SKY/WX    TMP DP  RH WIND       PRES   REMARKS
HAVRE          SUNNY     77  50  39 S8        29.84F
LEWISTOWN      PTCLDY    81  45  28 VRB5      29.93F
* CHINOOK      SUNNY     72  52  49 E5        29.84F
* FORT BENTON  PTCLDY    79  52  39 E7        29.85F
* CHESTER      N/A       77  41  28 SE3        N/A
* DENTON       N/A       81  46  29 NE6        N/A
* JUDITH GAP   N/A       77  47  35 S10        N/A
* LOMA         N/A       79  48  34 N3         N/A
$$

MTZ017>020-022>027-061-062-172000-
NORTHEAST MONTANA
CITY           SKY/WX    TMP DP  RH WIND       PRES   REMARKS
GLASGOW        SUNNY     75  48  39 SE14      29.88F
GLENDIVE       PTSUNNY   70  54  57 E12       29.93F
JORDAN         SUNNY     79  48  34 S10       29.88F
SIDNEY         PTCLDY    77  43  30 SE13      29.94F
WOLF POINT     PTCLDY    77  46  33 SE8       29.90F
* BEAVER HILL  N/A       68  48  49 E9G20      N/A
* CIRCLE       N/A       76  52  43 SE11       N/A
* LINDSAY DVD  N/A       68  50  53 NE12       N/A
* NAVAJO       N/A       74  40  29 S15G20     N/A
* SACO         N/A       75  47  37 E14        N/A
$$

MTZ028>042-056>058-172000-
SOUTHCENTRAL AND SOUTHEAST MONTANA
CITY           SKY/WX    TMP DP  RH WIND       PRES   REMARKS
BAKER          LGT RAIN  70  52  53 E14       29.95F
BILLINGS       PTCLDY    82  45  27 SW16      29.92F
LIVINGSTON     SUNNY     79  46  31 N5        29.96F
MILES CITY     PTCLDY    77  48  36 S8        29.89F
* LAUREL APT   SUNNY     84  46  26 SW13       N/A
* ROUNDUP APT  SUNNY     81  48  32 SW6        N/A
* ALZADA       N/A       79  43  28 E5G10      N/A
* HYSHAM       N/A       78  46  32 NW3G10     N/A
* LAME DEER    N/A       78  49  36 W7         N/A
* REED POINT   N/A       80  50  35 NW1        N/A
* ROSCOE HILL  N/A       75  38  26 SE3G9      N/A
$$

REGIONAL REPORTS...DAKOTAS
CITY           SKY/WX    TMP DP  RH WIND       PRES   REMARKS
WILLISTON      PTSUNNY   75  43  32 SE8       29.94F
DICKINSON      CLOUDY    68  46  45 E13       29.96F
BEACH          N/A       68  48  49 E13       29.96R
CROSBY         SUNNY     66  48  52 E13G21    29.98F
TIOGA          SUNNY     73  39  29 SE9G16    30.00F
WATFORD CITY   SUNNY     75  39  27 SE12G20   29.94S
BISMARCK       PTCLDY    73  50  44 VRB5      29.97F
GRAND FORKS    PTCLDY    64  52  65 NE12      30.01R
FARGO          SUNNY     72  48  43 N8        29.96S
BUFFALO SD     PTCLDY    75  50  42 SE14      29.89F
RAPID CITY     PTSUNNY   75  52  45 E9        29.96F
$$

REGIONAL REPORTS...WYOMING/IDAHO/WASHINGTON
CITY           SKY/WX    TMP DP  RH WIND       PRES   REMARKS
GILLETTE       PTCLDY    81  43  26 S6        29.98F
SHERIDAN       PTCLDY    82  46  28 N7        29.96F
CODY           SUNNY     79  45  30 E6        30.00F
YELLOWSTONE LA PTCLDY    63  45  52 VRB5      30.23F
SALMON         CLOUDY    68  45  44 NW5       29.96F
MULLAN PASS    PTSUNNY   66  39  37 VRB6      30.01S
SAND POINT     SUNNY     72  48  43 SE3       29.82F
SPOKANE        PTSUNNY   73  46  38 N5        29.81F
$$

REGIONAL REPORTS...ALBERTA
CITY           SKY/WX    TMP DP  RH WIND       PRES   REMARKS
CALGARY        PTSUNNY   70  39  32 S6        29.83F
LETHBRIDGE     PTSUNNY   75  48  39 NE5       29.82F
MEDICINE HAT   PTCLDY    73  46  38 VRB2      29.82F
EDMONTON       PTSUNNY   75  50  42 SE7       29.75F
WATERTON GATE  N/A       79  39  24 SW10       N/A
CARDSTON       N/A       77  50  39 N1         N/A
MILK RIVER     N/A       79  45  30 S7         N/A
$$

REGIONAL REPORTS...SASKATCHEWAN
CITY           SKY/WX    TMP DP  RH WIND       PRES   REMARKS
SWIFT CURRENT  SUNNY     75  43  32 S14       29.86F
MOOSE JAW      N/A       63  48  58 SE13      29.94F
REGINA         SUNNY     63  50  63 E17G24    29.97F
VAL MARIE      N/A       75  45  34 S15G22     N/A
ASSINIBOIA     N/A       77  41  28 S9G18      N/A
CORONACH       N/A       75  41  30 SE14G20    N/A

$$



USA.gov is the U.S. government's official web portal to all federal, state and local government web resources and services.